Elizabethton, TN

10:22 PM EDT on April 25, 2017 (GMT -0400)
Elizabethton

Weather History for K0A9 - February, 2013

Change the Weather History Date:

Tuesday, February 5, 2013

  Actual Average (KTRI) Record (KTRI)
Temperature  
Mean Temperature 37 °F -  
Max Temperature 46 °F 46 °F 71 °F (2008)
Min Temperature 28 °F 25 °F -15 °F (1996)
Degree Days  
Heating Degree Days 28    
Moisture  
Dew Point 32 °F    
Average Humidity 88    
Maximum Humidity 100    
Minimum Humidity 71    
Precipitation  
Precipitation 0.00 in - - ()
Sea Level Pressure  
Sea Level Pressure 29.95 in    
Wind  
Wind Speed 1 mph (West)    
Max Wind Speed 9 mph    
Max Gust Speed -    
Visibility 10 miles    
Events      
Averages and records for this station are not official NWS values.
T = Trace of Precipitation, MM = Missing Value Source: NWS Daily Summary

Daily Weather History Graph

Daily Weather History Graph

Search for Another Location

Airport or City:

Trip Planner

Search our weather history database for the weather conditions in past years. The results will help you decide how hot, cold, wet, or windy it might be!

Date:

Astronomy

Feb. 05, 2013 Rise Set
Actual Time 7:26 AM EST 5:59 PM EST
Civil Twilight 6:59 AM EST 6:26 PM EST
Nautical Twilight 6:28 AM EST 6:56 PM EST
Astronomical Twilight 5:58 AM EST 7:27 PM EST
Moon 3:03 AM EST (2/5) 1:19 PM EST (2/5)
Length of Visible Light 11h 26m
Length of Day
10h 33m
Waning Crescent, 27% of the Moon is Illuminated
Feb 5
Waning Crescent
Feb 10
New
Feb 17
First Quarter
Feb 25
Full
Mar 4
Last Quarter

Hourly Weather History & Observations

Time (EST) Temp. Windchill Dew Point Humidity Pressure Visibility Wind Dir Wind Speed Gust Speed Precip Events Conditions
12:55 AM 30.2 °F - 28.4 °F 93% 29.93 in 10.0 mi Calm Calm - N/A   Overcast
1:15 AM 32.0 °F - 28.4 °F 87% 29.93 in 10.0 mi Calm Calm - N/A   Overcast
1:35 AM 32.0 °F - 28.4 °F 87% 29.93 in 10.0 mi Calm Calm - N/A   Overcast
1:55 AM 30.2 °F - 28.4 °F 93% 29.93 in 10.0 mi Calm Calm - N/A   Overcast
2:15 AM 30.2 °F - 28.4 °F 93% 29.94 in 10.0 mi Calm Calm - N/A   Overcast
2:35 AM 30.2 °F - 28.4 °F 93% 29.93 in 10.0 mi Calm Calm - N/A   Overcast
2:55 AM 32.0 °F - 28.4 °F 87% 29.93 in 10.0 mi Calm Calm - N/A   Overcast
3:15 AM 32.0 °F - 28.4 °F 87% 29.92 in 10.0 mi Calm Calm - N/A   Overcast
3:35 AM 32.0 °F - 30.2 °F 93% 29.93 in 10.0 mi Calm Calm - N/A   Overcast
3:55 AM 32.0 °F - 28.4 °F 87% 29.93 in 10.0 mi Calm Calm - N/A   Overcast
4:15 AM 32.0 °F - 30.2 °F 93% 29.94 in 10.0 mi Calm Calm - N/A   Overcast
4:35 AM 32.0 °F - 28.4 °F 87% 29.94 in 10.0 mi Calm Calm - N/A   Overcast
4:55 AM 30.2 °F - 30.2 °F 100% 29.93 in 10.0 mi Calm Calm - N/A   Overcast
5:15 AM 32.0 °F - 30.2 °F 93% 29.93 in 10.0 mi Calm Calm - N/A   Overcast
5:35 AM 32.0 °F - 30.2 °F 93% 29.92 in 10.0 mi Calm Calm - N/A   Overcast
5:55 AM 32.0 °F - 30.2 °F 93% 29.93 in 10.0 mi Calm Calm - N/A   Overcast
6:15 AM 32.0 °F - 30.2 °F 93% 29.93 in 10.0 mi Calm Calm - N/A   Overcast
6:35 AM 32.0 °F - 30.2 °F 93% 29.93 in 10.0 mi Calm Calm - N/A   Overcast
6:55 AM 32.0 °F - 30.2 °F 93% 29.93 in 10.0 mi Calm Calm - N/A   Overcast
7:15 AM 33.8 °F - 30.2 °F 87% 29.94 in 10.0 mi Calm Calm - N/A   Overcast
7:35 AM 32.0 °F - 30.2 °F 93% 29.94 in 10.0 mi Calm Calm - N/A   Overcast
7:55 AM 33.8 °F - 30.2 °F 87% 29.95 in 10.0 mi Calm Calm - N/A   Overcast
8:15 AM 33.8 °F - 30.2 °F 87% 29.95 in 10.0 mi Calm Calm - N/A   Overcast
8:35 AM 33.8 °F - 30.2 °F 87% 29.95 in 10.0 mi Calm Calm - N/A   Overcast
8:55 AM 33.8 °F - 30.2 °F 87% 29.96 in 10.0 mi Calm Calm - N/A   Overcast
9:15 AM 33.8 °F - 30.2 °F 87% 29.96 in 10.0 mi Calm Calm - N/A   Light Drizzle
9:35 AM 33.8 °F - 30.2 °F 87% 29.97 in 10.0 mi Calm Calm - N/A   Overcast
10:15 AM 35.6 °F 31.7 °F 30.2 °F 81% 29.98 in 9.0 mi WNW 4.6 mph - N/A   Overcast
10:35 AM 37.4 °F 34.9 °F 30.2 °F 75% 29.99 in 10.0 mi West 3.5 mph - N/A   Overcast
10:55 AM 37.4 °F 34.9 °F 30.2 °F 75% 29.99 in 10.0 mi WNW 3.5 mph - N/A   Overcast
11:15 AM 37.4 °F 33.8 °F 32.0 °F 81% 29.99 in 10.0 mi West 4.6 mph - N/A   Overcast
11:35 AM 37.4 °F 34.9 °F 33.8 °F 87% 29.99 in 10.0 mi WNW 3.5 mph - N/A   Overcast
11:55 AM 37.4 °F 34.9 °F 33.8 °F 87% 29.98 in 10.0 mi West 3.5 mph - N/A   Overcast
12:15 PM 39.2 °F 35.9 °F 33.8 °F 81% 29.98 in 10.0 mi West 4.6 mph - N/A   Overcast
12:35 PM 39.2 °F 35.0 °F 35.6 °F 87% 29.97 in 10.0 mi West 5.8 mph - N/A   Overcast
12:55 PM 39.2 °F 35.0 °F 35.6 °F 87% 29.96 in 10.0 mi West 5.8 mph - N/A   Overcast
1:15 PM 39.2 °F 33.0 °F 35.6 °F 87% 29.95 in 10.0 mi West 9.2 mph - N/A   Overcast
1:35 PM 39.2 °F 35.0 °F 35.6 °F 87% 29.95 in 10.0 mi WNW 5.8 mph - N/A   Overcast
1:55 PM 41.0 °F 35.8 °F 35.6 °F 81% 29.94 in 10.0 mi West 8.1 mph - N/A   Overcast
2:15 PM 42.8 °F 40.1 °F 37.4 °F 81% 29.94 in 10.0 mi West 4.6 mph - N/A   Overcast
2:35 PM 42.8 °F 38.6 °F 37.4 °F 81% 29.94 in 10.0 mi WSW 6.9 mph - N/A   Overcast
2:55 PM 44.6 °F 40.2 °F 37.4 °F 76% 29.94 in 10.0 mi SW 8.1 mph - N/A   Overcast
3:15 PM 44.6 °F 40.7 °F 35.6 °F 71% 29.95 in 10.0 mi WSW 6.9 mph - N/A   Mostly Cloudy
3:35 PM 44.6 °F 40.2 °F 37.4 °F 76% 29.94 in 10.0 mi WSW 8.1 mph - N/A   Mostly Cloudy
3:55 PM 44.6 °F 40.2 °F 37.4 °F 76% 29.95 in 10.0 mi SW 8.1 mph - N/A   Mostly Cloudy
4:15 PM 44.6 °F 42.2 °F 35.6 °F 71% 29.95 in 10.0 mi WSW 4.6 mph - N/A   Mostly Cloudy
4:35 PM 46.4 °F 44.3 °F 37.4 °F 71% 29.94 in 10.0 mi SW 4.6 mph - N/A   Mostly Cloudy
4:55 PM 46.4 °F - 37.4 °F 71% 29.94 in 10.0 mi Calm Calm - N/A   Overcast
5:15 PM 46.4 °F - 37.4 °F 71% 29.94 in 10.0 mi Calm Calm - N/A   Overcast
5:35 PM 44.6 °F - 37.4 °F 76% 29.94 in 10.0 mi Calm Calm - N/A   Scattered Clouds
5:55 PM 39.2 °F - 35.6 °F 87% 29.94 in 10.0 mi Calm Calm - N/A   Clear
6:15 PM 35.6 °F - 33.8 °F 93% 29.94 in 10.0 mi Calm Calm - N/A   Clear
6:35 PM 33.8 °F - 32.0 °F 93% 29.95 in 10.0 mi Calm Calm - N/A   Clear
6:55 PM 33.8 °F - 32.0 °F 93% 29.95 in 10.0 mi Calm Calm - N/A   Clear
7:15 PM 33.8 °F - 32.0 °F 93% 29.95 in 10.0 mi Calm Calm - N/A   Clear
7:35 PM 32.0 °F - 30.2 °F 93% 29.96 in 10.0 mi Calm Calm - N/A   Clear
7:55 PM 32.0 °F - 30.2 °F 93% 29.97 in 10.0 mi Calm Calm - N/A   Clear
8:15 PM 30.2 °F - 30.2 °F 100% 29.97 in 10.0 mi Calm Calm - N/A   Clear
8:35 PM 30.2 °F - 30.2 °F 100% 29.97 in 10.0 mi Calm Calm - N/A   Clear
8:55 PM 30.2 °F - 30.2 °F 100% 29.97 in 10.0 mi Calm Calm - N/A   Clear
9:15 PM 30.2 °F - 28.4 °F 93% 29.98 in 10.0 mi Calm Calm - N/A   Clear
9:35 PM 30.2 °F - 30.2 °F 100% 29.98 in 8.0 mi Calm Calm - N/A   Clear
9:55 PM 28.4 °F - 28.4 °F 100% 29.98 in 10.0 mi Calm Calm - N/A   Clear
10:15 PM 30.2 °F - 28.4 °F 93% 29.99 in 8.0 mi Calm Calm - N/A   Clear
10:35 PM 28.4 °F - 28.4 °F 100% 29.99 in 7.0 mi Calm Calm - N/A   Clear
10:55 PM 28.4 °F - 28.4 °F 100% 29.99 in 9.0 mi Calm Calm - N/A   Clear
11:15 PM 28.4 °F - 26.6 °F 93% 29.99 in 9.0 mi Calm Calm - N/A   Clear
11:35 PM 28.4 °F - 28.4 °F 100% 29.99 in 8.0 mi Calm Calm - N/A   Clear
11:55 PM 28.4 °F - 28.4 °F 100% 29.99 in 6.0 mi Calm Calm - N/A   Partly Cloudy